Location: Recife
(8.0585°S, 34.8848°W)
Time: 09:48:51
(UTC-03:00)

SR - Pass Details

Date: 19 April 2026
Orbit: 568 x 852 km, 66.7° (Epoch: 12 May)

Event Time Altitude Azimuth Distance (km) Brightness Sun altitude
Rises 09:58:24 0° 167° (SSE) 2,776 ? 62.2°
Reaches altitude 10° 10:02:03 10° 134° (SE) 1,869 ? 62.8°
Maximum altitude 10:03:33 12° 113° (ESE) 1,761 ? 63.1°
Drops below altitude 10° 10:05:04 10° 91° (E) 1,875 ? 63.4°
Sets 10:08:43 0° 59° (ENE) 2,797 ? 64.0°
